Regional Weather Roundup
Issued by NWS New Orleans/Baton Rouge, LA

Home | Current Version | Previous Version | Text Only | Print | Product List | Glossary Off
Versions: 1 2 3 4 5 6 7 8 9 10 11 12 13 14 15 16 17 18 19 20 21 22 23 24 25 26 27 28 29 30 31 32 33 34 35 36 37 38 39 40 41 42 43 44 45 46 47 48 49 50

595
ASUS44 KLIX 291907
RWRLIX
NEW ORLEANS REGIONAL WEATHER ROUNDUP
NATIONAL WEATHER SERVICE NEW ORLEANS LA
200 PM CDT SUN MAR 29 2015

NOTE: "FAIR" INDICATES FEW OR NO CLOUDS BELOW 12,000 FEET WITH NO
      SIGNIFICANT WEATHER AND/OR OBSTRUCTIONS TO VISIBILITY.
      SKY/WX - SKY CONDITION AND SIGNIFICANT WEATHER.
      TMP - AIR TEMPERATURE.     DP    - DEWPOINT TEMPERATURE.
      RH  - RELATIVE HUMIDITY.   PRES  - PRESSURE.
      HI  - HEAT INDEX.          WCI   - WIND CHILL INDEX.

*  THESE STATIONS ARE NOT NWS OR FAA STATIONS AND ARE NOT UNDER
   NWS QUALITY CONTROL.

LAZ038-040-048-061>063-065>067-069-292000-
SOUTHEAST LOUISIANA

CITY           SKY/WX    TMP DP  RH WIND       PRES   REMARKS
N.O. AUDUBON     N/A    N/A N/A N/A MISG        N/A
N.O. INTL ARPT PTSUNNY   75  60  59 S10       30.25F
N.O. LAKEFRONT PTSUNNY   76  59  55 S13       30.25F
SLIDELL        CLOUDY    72  58  61 SE8       30.26F
BATON ROUGE    PTSUNNY   78  59  51 S14       30.21F
BOOTHVILLE     SUNNY     73  61  65 S15G21    30.28F
BELLE CHASSE   MOSUNNY   73  59  61 S13       30.25F
BOGALUSA*        N/A     75  55  49 S12       30.26F
GALLIANO*      MOCLDY    78  63  61 MISG      30.26F
NEW ROADS*     MOCLDY    74  60  59 S5        30.20F
GONZALES*        N/A     79  58  48 SW10G16   30.22F
HAMMOND*       PTSUNNY   75  57  53 SE10G20   30.26F
HOUMA*         MOSUNNY   77  63  61 S9        30.25F
PORT FOURCHON* CLEAR     72  64  78 SE15      30.29F

$$

MSZ070-080>082-292000-
SOUTHERN MISSISSIPPI

CITY           SKY/WX    TMP DP  RH WIND       PRES   REMARKS
MCCOMB         PTSUNNY   75  56  51 S13G24    30.22F
GULFPORT       PTSUNNY   68  56  65 SE16      30.29F
BILOXI         MOSUNNY   68  56  65 SE15      30.29F
PASCAGOULA     CLOUDY    69  54  58 SE16      30.30F
STENNIS ARPT*  PTSUNNY   70  52  52 SE14G21   30.28F

$$

COASTAL OBSERVATIONS
LAKE AND NEARSHORE STATIONS

STATION/POSITION TIME  TEMP    WIND        PRES    WAVE
                       AIR SEA DIR/SP/G            HT/PER
                 (UTC) (F)     (DEG/KT/KT) (MB)    (FT/S)
PASCAGOULA       1800   66     120/  8/ 15 1026.3
WAVELAND YACHT   1800   64 64  140/ 14/ 15 1026.0
GRAND ISLE       1800   70 66  140/  8/ 14 1025.1
SOUTHWEST PASS   1800   71 53  140/ 13/ 17 1026.0
NEW CANAL        1806   74      80/  2/  5 1025.1
SHELL BEACH      1800   69 67  140/ 16/ 19 1025.4

OFFSHORE STATIONS

STATION/POSITION TIME  TEMP    WIND        PRES    WAVE
                       AIR SEA DIR/SP/G            HT/PER
                 (UTC) (F)     (DEG/KT/KT) (MB)    (FT/S)
64 S DAUPHIN ISL 1850   67 72  130/ 14/ 16 1026.2    2/ 4

$$




USA.gov is the U.S. government's official web portal to all federal, state and local government web resources and services.